TimeMDT,TemperatureF,Dew PointF,Humidity,Sea Level PressureIn,VisibilityMPH,Wind Direction,Wind SpeedMPH,Gust SpeedMPH,PrecipitationIn,Events,Conditions,WindDirDegrees,DateUTC
12:00 AM,-8,-11,78,30.14,,WSW,11.5,,,,,250,2012-10-20 06:00:00
12:00 AM,-7.6,-11.2,84,30.14,-9999.0,WSW,11.5,-,N/A,,Unknown,250,2012-10-20 06:00:00
1:00 AM,-7.6,-11.0,85,30.14,-9999.0,WSW,11.5,-,N/A,,Unknown,250,2012-10-20 07:00:00
2:00 AM,-8.0,-11.4,85,30.15,-9999.0,West,12.7,-,N/A,,Unknown,260,2012-10-20 08:00:00
3:00 AM,-8.0,-11.4,85,30.16,-9999.0,West,11.5,-,N/A,,Unknown,260,2012-10-20 09:00:00
4:00 AM,-8.1,-11.6,85,30.17,-9999.0,West,11.5,-,N/A,,Unknown,260,2012-10-20 10:00:00
5:00 AM,-8.5,-12.1,84,30.18,-9999.0,West,11.5,-,N/A,,Unknown,260,2012-10-20 11:00:00
6:00 AM,-8,-12,73,30.18,,West,9.2,,,,,270,2012-10-20 12:00:00
6:00 AM,-8.5,-12.1,84,30.18,-9999.0,West,9.2,-,N/A,,Unknown,270,2012-10-20 12:00:00
7:00 AM,-8.7,-12.3,84,30.19,-9999.0,West,9.2,-,N/A,,Unknown,260,2012-10-20 13:00:00
8:00 AM,-8.9,-12.6,83,30.21,-9999.0,West,6.9,-,N/A,,Unknown,260,2012-10-20 14:00:00
9:00 AM,-8.5,-12.1,84,30.22,-9999.0,West,10.4,-,N/A,,Unknown,260,2012-10-20 15:00:00
10:00 AM,-8.5,-12.1,84,30.23,-9999.0,West,9.2,-,N/A,,Unknown,260,2012-10-20 16:00:00
11:00 AM,-8.5,-12.3,83,30.24,-9999.0,West,8.1,-,N/A,,Unknown,270,2012-10-20 17:00:00
12:00 PM,-8,-12,75,30.25,,West,10.4,,,,,270,2012-10-20 18:00:00
12:00 PM,-7.8,-11.7,83,30.25,-9999.0,West,10.4,-,N/A,,Unknown,270,2012-10-20 18:00:00
1:00 PM,-6.7,-10.5,84,30.26,-9999.0,West,9.2,-,N/A,,Unknown,270,2012-10-20 19:00:00
2:00 PM,-7.1,-11.0,83,30.28,-9999.0,WSW,8.1,-,N/A,,Unknown,250,2012-10-20 20:00:00
3:00 PM,-8.1,-12.1,83,30.29,-9999.0,WSW,8.1,-,N/A,,Unknown,240,2012-10-20 21:00:00
4:00 PM,-7.8,-11.4,84,30.30,-9999.0,West,10.4,-,N/A,,Unknown,260,2012-10-20 22:00:00
5:00 PM,-8.0,-11.6,84,30.32,-9999.0,SW,5.8,-,N/A,,Unknown,230,2012-10-20 23:00:00
6:00 PM,-7,-11,73,30.33,,West,10.4,,,,,260,2012-10-21 00:00:00
6:00 PM,-7.4,-11.0,84,30.33,-9999.0,West,10.4,-,N/A,,Unknown,260,2012-10-21 00:00:00
7:00 PM,-7.6,-11.2,84,30.35,-9999.0,WSW,11.5,-,N/A,,Unknown,250,2012-10-21 01:00:00
8:00 PM,-8.5,-12.3,83,30.36,-9999.0,West,12.7,-,N/A,,Unknown,260,2012-10-21 02:00:00
9:00 PM,-8.5,-12.1,84,30.38,-9999.0,West,13.8,-,N/A,,Unknown,260,2012-10-21 03:00:00
10:00 PM,-8.9,-12.6,83,30.39,-9999.0,West,12.7,-,N/A,,Unknown,260,2012-10-21 04:00:00
11:00 PM,-9.2,-13.2,83,30.40,-9999.0,West,12.7,-,N/A,,Unknown,260,2012-10-21 05:00:00